| time (UTC) | temp C | wind direction | speed KPH | gust KPH | rain 1hr cm | rain 24hr cm | rain mn cm | humidity % | barometer mb |
| 20260506231545 | 5 | 0 | 0.0 | 0.0 | 0.00 | 1.22 | 1.19 | 97 | 1009.3 |
| 20260506230045 | 5 | 0 | 0.0 | 0.0 | 0.00 | 1.22 | 1.19 | 97 | 1009.1 |
| 20260506224550 | 6 | 0 | 0.0 | 0.0 | 0.00 | 1.22 | 1.19 | 97 | 1009.1 |
| 20260506223048 | 6 | 0 | 0.0 | 0.0 | 0.00 | 1.22 | 1.19 | 97 | 1008.6 |
| 20260506221542 | 6 | 0 | 0.0 | 0.0 | 0.00 | 1.22 | 1.19 | 97 | 1008.5 |
| 20260506220049 | 6 | 0 | 0.0 | 0.0 | 0.00 | 1.22 | 1.19 | 97 | 1008.5 |
| 20260506214544 | 6 | 0 | 0.0 | 0.0 | 0.03 | 1.22 | 1.19 | 97 | 1008.4 |
| 20260506213042 | 6 | 0 | 0.0 | 0.0 | 0.03 | 1.22 | 1.19 | 97 | 1008.0 |
| 20260506211542 | 6 | 0 | 0.0 | 0.0 | 0.03 | 1.22 | 1.19 | 97 | 1007.7 |
| 20260506210040 | 7 | 0 | 0.0 | 0.0 | 0.05 | 1.22 | 1.19 | 96 | 1007.4 |
| 20260506204549 | 7 | 0 | 0.0 | 0.0 | 0.05 | 1.42 | 1.17 | 97 | 1007.2 |
| 20260506203045 | 7 | 0 | 0.0 | 0.0 | 0.08 | 1.42 | 1.17 | 97 | 1006.7 |
| 20260506201545 | 7 | 0 | 0.0 | 0.0 | 0.10 | 1.42 | 1.17 | 97 | 1006.5 |
| 20260506200057 | 8 | 0 | 0.0 | 0.0 | 0.08 | 1.40 | 1.14 | 97 | 1006.6 |
| 20260506194542 | 8 | 0 | 0.0 | 0.0 | 0.05 | 1.37 | 1.12 | 97 | 1006.6 |
| 20260506193043 | 8 | 0 | 0.0 | 0.0 | 0.03 | 1.32 | 1.09 | 96 | 1006.7 |
| 20260506191536 | 8 | 0 | 0.0 | 0.0 | 0.00 | 1.32 | 1.07 | 96 | 1006.4 |
| 20260506190042 | 9 | 0 | 0.0 | 0.0 | 0.00 | 1.32 | 1.07 | 96 | 1006.1 |
| 20260506184541 | 10 | 0 | 0.0 | 0.0 | 0.00 | 1.32 | 1.07 | 95 | 1005.9 |
| 20260506183045 | 11 | 0 | 0.0 | 0.0 | 0.00 | 1.32 | 1.07 | 95 | 1005.8 |
| 20260506181552 | 12 | 0 | 0.0 | 0.0 | 0.00 | 1.32 | 1.07 | 97 | 1005.7 |
| 20260506180044 | 12 | 0 | 0.0 | 0.0 | 0.00 | 1.32 | 1.07 | 97 | 1005.7 |
| 20260506174543 | 12 | 0 | 0.0 | 0.0 | 0.00 | 1.32 | 1.07 | 97 | 1005.6 |
| 20260506173049 | 12 | 0 | 0.0 | 0.0 | 0.03 | 1.32 | 1.07 | 97 | 1005.4 |
| 20260506171544 | 12 | 0 | 0.0 | 0.0 | 0.05 | 1.32 | 1.07 | 97 | 1005.8 |
| 20260506170049 | 12 | 0 | 0.0 | 0.0 | 0.05 | 1.32 | 1.07 | 97 | 1005.9 |
| 20260506164550 | 12 | 0 | 0.0 | 0.0 | 0.08 | 1.32 | 1.07 | 97 | 1005.8 |
| 20260506163043 | 12 | 0 | 0.0 | 0.0 | 0.10 | 1.30 | 1.04 | 97 | 1005.8 |
| 20260506161550 | 12 | 0 | 0.0 | 0.0 | 0.10 | 1.27 | 1.02 | 97 | 1005.9 |
| 20260506160045 | 12 | 0 | 0.0 | 0.0 | 0.13 | 1.27 | 1.02 | 97 | 1006.1 |
| 20260506154548 | 12 | 0 | 0.0 | 0.0 | 0.13 | 1.24 | 0.99 | 96 | 1005.9 |
| 20260506153043 | 12 | 0 | 0.0 | 0.0 | 0.13 | 1.19 | 0.94 | 96 | 1006.0 |
| 20260506151600 | 12 | 0 | 0.0 | 0.0 | 0.13 | 1.17 | 0.91 | 96 | 1006.2 |
| 20260506150044 | 11 | 0 | 0.0 | 0.0 | 0.15 | 1.14 | 0.89 | 96 | 1005.9 |
| 20260506144539 | 11 | 0 | 0.0 | 0.0 | 0.18 | 1.09 | 0.84 | 96 | 1005.9 |
| 20260506143045 | 11 | 0 | 0.0 | 0.0 | 0.20 | 1.07 | 0.81 | 96 | 1005.9 |
| 20260506141537 | 11 | 0 | 0.0 | 0.0 | 0.25 | 1.04 | 0.79 | 96 | 1005.7 |
| 20260506140045 | 11 | 0 | 0.0 | 0.0 | 0.28 | 0.99 | 0.74 | 96 | 1005.9 |
| 20260506134544 | 11 | 0 | 0.0 | 0.0 | 0.28 | 0.91 | 0.66 | 96 | 1006.2 |
| 20260506133040 | 11 | 0 | 0.0 | 0.0 | 0.30 | 0.86 | 0.61 | 96 | 1006.7 |
| 20260506131537 | 11 | 0 | 0.0 | 0.0 | 0.28 | 0.79 | 0.53 | 96 | 1007.0 |
| 20260506130053 | 11 | 0 | 0.0 | 0.0 | 0.23 | 0.71 | 0.46 | 95 | 1007.4 |
| 20260506124536 | 11 | 0 | 0.0 | 0.0 | 0.18 | 0.64 | 0.38 | 95 | 1007.0 |
| 20260506123043 | 11 | 0 | 0.0 | 0.0 | 0.10 | 0.56 | 0.30 | 95 | 1006.9 |
| 20260506121541 | 11 | 0 | 0.0 | 0.0 | 0.08 | 0.51 | 0.25 | 95 | 1006.8 |
| 20260506120045 | 11 | 0 | 0.0 | 0.0 | 0.05 | 0.48 | 0.23 | 95 | 1006.9 |
| 20260506114546 | 11 | 0 | 0.0 | 0.0 | 0.05 | 0.46 | 0.20 | 95 | 1006.9 |
| 20260506113040 | 11 | 0 | 0.0 | 0.0 | 0.10 | 0.46 | 0.20 | 94 | 1006.9 |
| 20260506111543 | 11 | 0 | 0.0 | 0.0 | 0.13 | 0.43 | 0.18 | 94 | 1007.0 |
| 20260506110056 | 11 | 0 | 0.0 | 0.0 | 0.15 | 0.43 | 0.18 | 94 | 1007.2 |
| 20260506104537 | 11 | 0 | 0.0 | 0.0 | 0.13 | 0.41 | 0.15 | 93 | 1007.2 |
| 20260506103048 | 11 | 0 | 0.0 | 0.0 | 0.10 | 0.36 | 0.10 | 93 | 1007.0 |
| 20260506101553 | 11 | 0 | 0.0 | 0.0 | 0.05 | 0.30 | 0.05 | 93 | 1006.9 |
| 20260506100042 | 11 | 0 | 0.0 | 0.0 | 0.03 | 0.28 | 0.03 | 93 | 1006.8 |
| 20260506094547 | 11 | 0 | 0.0 | 0.0 | 0.03 | 0.28 | 0.03 | 92 | 1006.5 |
| 20260506093047 | 11 | 0 | 0.0 | 0.0 | 0.00 | 0.25 | 0.00 | 93 | 1006.5 |
| 20260506091536 | 11 | 0 | 0.0 | 0.0 | 0.00 | 0.25 | 0.00 | 92 | 1006.6 |
| 20260506090045 | 11 | 0 | 0.0 | 0.0 | 0.00 | 0.25 | 0.00 | 93 | 1007.0 |
| 20260506084548 | 11 | 0 | 0.0 | 0.0 | 0.00 | 0.25 | 0.00 | 95 | 1007.0 |
| 20260506083040 | 11 | 0 | 0.0 | 0.0 | 0.00 | 0.25 | 0.00 | 94 | 1007.2 |
| 20260506081537 | 11 | 0 | 0.0 | 0.0 | 0.00 | 0.25 | 0.00 | 96 | 1006.6 |
| 20260506073046 | 11 | 0 | 0.0 | 0.0 | 0.00 | 0.25 | 0.00 | 96 | 1006.7 |
| 20260506071557 | 11 | 0 | 0.0 | 0.0 | 0.00 | 0.25 | 0.00 | 96 | 1006.9 |
| 20260506061536 | 10 | 0 | 0.0 | 0.0 | 0.00 | 0.25 | 0.00 | 93 | 1007.6 |
| 20260506044544 | 10 | 0 | 0.0 | 0.0 | 0.00 | 0.25 | 0.00 | 91 | 1008.6 |
| 20260506043043 | 11 | 0 | 0.0 | 0.0 | 0.00 | 0.25 | 0.00 | 92 | 1008.7 |
| 20260506041548 | 11 | 0 | 0.0 | 0.0 | 0.00 | 0.25 | 0.00 | 91 | 1008.9 |
| 20260506040046 | 11 | 0 | 0.0 | 0.0 | 0.00 | 0.25 | 0.00 | 93 | 1009.0 |
| 20260506034545 | 12 | 0 | 0.0 | 0.0 | 0.00 | 0.25 | 0.25 | 93 | 1009.4 |
| 20260506033048 | 12 | 0 | 0.0 | 0.0 | 0.00 | 0.25 | 0.25 | 93 | 1009.1 |
| 20260506031534 | 12 | 0 | 0.0 | 0.0 | 0.00 | 0.25 | 0.25 | 93 | 1009.1 |
| 20260506030036 | 12 | 0 | 0.0 | 0.0 | 0.03 | 0.25 | 0.25 | 93 | 1009.3 |
| 20260506024545 | 13 | 0 | 0.0 | 0.0 | 0.03 | 0.25 | 0.25 | 93 | 1009.1 |
| 20260506023041 | 13 | 0 | 0.0 | 0.0 | 0.03 | 0.25 | 0.25 | 92 | 1008.9 |
| 20260506021538 | 13 | 0 | 0.0 | 0.0 | 0.03 | 0.25 | 0.25 | 90 | 1009.0 |
| 20260506020036 | 14 | 0 | 0.0 | 0.0 | 0.00 | 0.23 | 0.23 | 89 | 1008.7 |
| 20260506014550 | 15 | 0 | 0.0 | 0.0 | 0.00 | 0.23 | 0.23 | 82 | 1008.7 |
| 20260506013043 | 15 | 0 | 0.0 | 0.0 | 0.00 | 0.23 | 0.23 | 81 | 1008.5 |
| 20260506011543 | 16 | 0 | 0.0 | 0.0 | 0.00 | 0.23 | 0.23 | 81 | 1008.5 |
| 20260506010037 | 15 | 0 | 0.0 | 0.0 | 0.00 | 0.23 | 0.23 | 80 | 1008.2 |
| 20260506004542 | 15 | 0 | 0.0 | 0.0 | 0.00 | 0.23 | 0.23 | 86 | 1008.2 |
| 20260506003043 | 15 | 0 | 0.0 | 0.0 | 0.00 | 0.23 | 0.23 | 85 | 1007.9 |
| 20260506001604 | 15 | 0 | 0.0 | 0.0 | 0.00 | 0.23 | 0.23 | 84 | 1007.7 |
| 20260506000045 | 16 | 0 | 0.0 | 0.0 | 0.00 | 0.23 | 0.23 | 80 | 1007.7 |
| 20260505234546 | 16 | 0 | 0.0 | 0.0 | 0.00 | 0.23 | 0.23 | 80 | 1007.7 |
| 20260505233037 | 16 | 0 | 0.0 | 0.0 | 0.00 | 0.23 | 0.23 | 81 | 1007.6 |